| time (UTC) | temp F | wind direction | speed MPH | gust MPH | rain 1hr in | rain 24hr in | rain mn in | humidity % | barometer mb |
| 20260505081504 | 59 | 259 | 1.0 | 7.0 | 0.00 | 0.00 | 0.00 | 81 | 1010.7 |
| 20260505081003 | 59 | 205 | 2.0 | 5.0 | 0.00 | 0.00 | 0.00 | 81 | 1010.8 |
| 20260505080503 | 58 | 208 | 2.0 | 7.0 | 0.00 | 0.00 | 0.00 | 82 | 1010.7 |
| 20260505080004 | 58 | 198 | 2.0 | 6.0 | 0.00 | 0.00 | 0.00 | 82 | 1010.8 |
| 20260505075504 | 58 | 236 | 2.0 | 5.0 | 0.00 | 0.00 | 0.00 | 82 | 1010.8 |
| 20260505075003 | 58 | 200 | 1.0 | 3.0 | 0.00 | 0.00 | 0.00 | 82 | 1010.8 |
| 20260505074504 | 58 | 182 | 1.0 | 7.0 | 0.00 | 0.00 | 0.00 | 82 | 1010.7 |
| 20260505074004 | 58 | 203 | 1.0 | 3.0 | 0.00 | 0.00 | 0.00 | 82 | 1010.7 |
| 20260505073503 | 58 | 192 | 1.0 | 6.0 | 0.00 | 0.00 | 0.00 | 82 | 1010.7 |
| 20260505073003 | 58 | 189 | 1.0 | 5.0 | 0.00 | 0.00 | 0.00 | 82 | 1010.8 |
| 20260505072504 | 58 | 198 | 3.0 | 5.0 | 0.00 | 0.00 | 0.00 | 82 | 1010.6 |
| 20260505072004 | 58 | 199 | 2.0 | 5.0 | 0.00 | 0.00 | 0.00 | 82 | 1010.7 |
| 20260505071503 | 58 | 205 | 2.0 | 3.0 | 0.00 | 0.00 | 0.00 | 82 | 1010.5 |
| 20260505071004 | 57 | 196 | 1.0 | 6.0 | 0.00 | 0.00 | 0.00 | 83 | 1010.6 |
| 20260505070503 | 57 | 191 | 1.0 | 3.0 | 0.00 | 0.00 | 0.00 | 84 | 1010.6 |
| 20260505070004 | 57 | 193 | 1.0 | 3.0 | 0.00 | 0.00 | 0.00 | 84 | 1010.7 |
| 20260505065503 | 57 | 182 | 1.0 | 5.0 | 0.00 | 0.00 | 0.00 | 86 | 1010.7 |
| 20260505065003 | 56 | 213 | 2.0 | 7.0 | 0.00 | 0.00 | 0.00 | 86 | 1010.7 |
| 20260505064504 | 56 | 217 | 1.0 | 3.0 | 0.00 | 0.00 | 0.00 | 87 | 1010.6 |
| 20260505064003 | 55 | 224 | 0.0 | 1.0 | 0.00 | 0.00 | 0.00 | 87 | 1010.7 |
| 20260505063504 | 55 | 224 | 1.0 | 2.0 | 0.00 | 0.00 | 0.00 | 88 | 1010.6 |
| 20260505063004 | 55 | 163 | 2.0 | 5.0 | 0.00 | 0.00 | 0.00 | 88 | 1010.8 |
| 20260505062503 | 55 | 220 | 1.0 | 3.0 | 0.00 | 0.00 | 0.00 | 88 | 1010.8 |
| 20260505062004 | 55 | 189 | 0.0 | 1.0 | 0.00 | 0.00 | 0.00 | 88 | 1010.8 |
| 20260505061503 | 55 | 189 | 0.0 | 1.0 | 0.00 | 0.00 | 0.00 | 87 | 1010.8 |
| 20260505061004 | 55 | 189 | 0.0 | 2.0 | 0.00 | 0.00 | 0.00 | 87 | 1010.9 |
| 20260505060503 | 55 | 189 | 0.0 | 2.0 | 0.00 | 0.00 | 0.00 | 87 | 1011.0 |
| 20260505060004 | 56 | 189 | 0.0 | 2.0 | 0.00 | 0.00 | 0.00 | 87 | 1011.0 |
| 20260505055504 | 56 | 189 | 0.0 | 1.0 | 0.00 | 0.00 | 0.00 | 87 | 1011.0 |
| 20260505055003 | 56 | 189 | 0.0 | 2.0 | 0.00 | 0.00 | 0.00 | 87 | 1011.1 |
| 20260505054503 | 56 | 189 | 0.0 | 1.0 | 0.00 | 0.00 | 0.00 | 87 | 1010.9 |
| 20260505054004 | 56 | 189 | 1.0 | 3.0 | 0.00 | 0.00 | 0.00 | 86 | 1010.9 |
| 20260505053503 | 56 | 160 | 0.0 | 2.0 | 0.00 | 0.00 | 0.00 | 86 | 1010.8 |
| 20260505053004 | 57 | 132 | 0.0 | 3.0 | 0.00 | 0.00 | 0.00 | 86 | 1010.9 |
| 20260505052503 | 57 | 143 | 1.0 | 3.0 | 0.00 | 0.00 | 0.00 | 85 | 1011.0 |
| 20260505052004 | 57 | 153 | 1.0 | 5.0 | 0.00 | 0.00 | 0.00 | 84 | 1011.0 |
| 20260505051504 | 57 | 153 | 0.0 | 3.0 | 0.00 | 0.00 | 0.00 | 83 | 1011.0 |
| 20260505051003 | 57 | 141 | 2.0 | 5.0 | 0.00 | 0.00 | 0.00 | 83 | 1011.1 |
| 20260505050504 | 58 | 152 | 1.0 | 3.0 | 0.00 | 0.00 | 0.00 | 82 | 1011.2 |
| 20260505041503 | 59 | 145 | 1.0 | 5.0 | 0.00 | 0.00 | 0.00 | 77 | 1011.3 |
| 20260505041004 | 58 | 151 | 2.0 | 6.0 | 0.00 | 0.00 | 0.00 | 78 | 1011.3 |
| 20260505040503 | 58 | 170 | 2.0 | 5.0 | 0.00 | 0.00 | 0.00 | 79 | 1011.3 |
| 20260505040005 | 58 | 161 | 2.0 | 3.0 | 0.00 | 0.00 | 0.00 | 79 | 1011.3 |
| 20260505035504 | 58 | 167 | 2.0 | 3.0 | 0.00 | 0.00 | 0.00 | 79 | 1011.4 |
| 20260505035004 | 59 | 190 | 1.0 | 3.0 | 0.00 | 0.00 | 0.00 | 77 | 1011.4 |
| 20260505034504 | 59 | 155 | 1.0 | 3.0 | 0.00 | 0.00 | 0.00 | 75 | 1011.4 |
| 20260505034003 | 59 | 142 | 2.0 | 5.0 | 0.00 | 0.00 | 0.00 | 74 | 1011.3 |
| 20260505033503 | 59 | 180 | 1.0 | 3.0 | 0.00 | 0.00 | 0.00 | 74 | 1011.3 |
| 20260505033004 | 59 | 178 | 1.0 | 3.0 | 0.00 | 0.00 | 0.00 | 74 | 1011.5 |
| 20260505032503 | 59 | 165 | 1.0 | 3.0 | 0.00 | 0.00 | 0.00 | 74 | 1011.5 |
| 20260505032003 | 59 | 173 | 1.0 | 3.0 | 0.00 | 0.00 | 0.00 | 73 | 1011.5 |
| 20260505031504 | 59 | 157 | 1.0 | 2.0 | 0.00 | 0.00 | 0.00 | 72 | 1011.5 |
| 20260505031004 | 60 | 157 | 1.0 | 2.0 | 0.00 | 0.00 | 0.00 | 70 | 1011.5 |
| 20260505030503 | 60 | 199 | 1.0 | 7.0 | 0.00 | 0.00 | 0.00 | 69 | 1011.5 |
| 20260505030004 | 60 | 132 | 1.0 | 5.0 | 0.00 | 0.00 | 0.00 | 68 | 1011.5 |
| 20260505025503 | 60 | 184 | 1.0 | 5.0 | 0.00 | 0.00 | 0.00 | 68 | 1011.5 |
| 20260505025004 | 60 | 181 | 3.0 | 8.0 | 0.00 | 0.00 | 0.00 | 68 | 1011.5 |
| 20260505024504 | 61 | 190 | 1.0 | 3.0 | 0.00 | 0.00 | 0.00 | 67 | 1011.6 |
| 20260505024003 | 61 | 158 | 2.0 | 5.0 | 0.00 | 0.00 | 0.00 | 67 | 1011.6 |
| 20260505023504 | 61 | 143 | 2.0 | 5.0 | 0.00 | 0.00 | 0.00 | 67 | 1011.6 |
| 20260505023003 | 61 | 163 | 3.0 | 8.0 | 0.00 | 0.00 | 0.00 | 67 | 1011.7 |
| 20260505022504 | 61 | 172 | 2.0 | 5.0 | 0.00 | 0.00 | 0.00 | 67 | 1011.7 |
| 20260505022003 | 61 | 192 | 3.0 | 7.0 | 0.00 | 0.00 | 0.00 | 67 | 1011.6 |
| 20260505021503 | 61 | 186 | 2.0 | 6.0 | 0.00 | 0.00 | 0.00 | 67 | 1011.7 |
| 20260505021004 | 61 | 182 | 2.0 | 5.0 | 0.00 | 0.00 | 0.00 | 67 | 1011.7 |
| 20260505020504 | 61 | 155 | 1.0 | 9.0 | 0.00 | 0.00 | 0.00 | 67 | 1011.7 |
| 20260505020003 | 60 | 185 | 4.0 | 8.0 | 0.00 | 0.00 | 0.00 | 68 | 1011.7 |
| 20260505015504 | 60 | 161 | 2.0 | 6.0 | 0.00 | 0.00 | 0.00 | 68 | 1011.6 |
| 20260505015003 | 60 | 168 | 1.0 | 6.0 | 0.00 | 0.00 | 0.00 | 68 | 1011.6 |
| 20260505014503 | 60 | 183 | 2.0 | 6.0 | 0.00 | 0.00 | 0.00 | 69 | 1011.6 |
| 20260505014003 | 60 | 149 | 1.0 | 6.0 | 0.00 | 0.00 | 0.00 | 70 | 1011.6 |
| 20260505013503 | 60 | 188 | 2.0 | 8.0 | 0.00 | 0.00 | 0.00 | 70 | 1011.6 |
| 20260505013004 | 60 | 178 | 1.0 | 3.0 | 0.00 | 0.00 | 0.00 | 70 | 1011.6 |
| 20260505012503 | 60 | 174 | 2.0 | 3.0 | 0.00 | 0.00 | 0.00 | 70 | 1011.6 |
| 20260505012003 | 60 | 145 | 2.0 | 3.0 | 0.00 | 0.00 | 0.00 | 70 | 1011.6 |
| 20260505011504 | 60 | 179 | 2.0 | 5.0 | 0.00 | 0.00 | 0.00 | 70 | 1011.5 |
| 20260505011004 | 60 | 156 | 1.0 | 5.0 | 0.00 | 0.00 | 0.00 | 70 | 1011.5 |
| 20260505010503 | 60 | 132 | 1.0 | 6.0 | 0.00 | 0.00 | 0.00 | 70 | 1011.4 |
| 20260505010003 | 60 | 173 | 1.0 | 5.0 | 0.00 | 0.00 | 0.00 | 71 | 1011.4 |
| 20260505005504 | 60 | 169 | 1.0 | 5.0 | 0.00 | 0.00 | 0.00 | 71 | 1011.4 |
| 20260505005004 | 60 | 177 | 3.0 | 7.0 | 0.00 | 0.00 | 0.00 | 72 | 1011.2 |
| 20260505004504 | 60 | 182 | 1.0 | 3.0 | 0.00 | 0.00 | 0.00 | 72 | 1011.6 |
| 20260505004003 | 60 | 140 | 2.0 | 5.0 | 0.00 | 0.00 | 0.00 | 73 | 1011.2 |
| 20260505003503 | 60 | 161 | 2.0 | 5.0 | 0.00 | 0.00 | 0.00 | 73 | 1011.1 |
| 20260505003003 | 60 | 163 | 2.0 | 6.0 | 0.00 | 0.00 | 0.00 | 73 | 1011.2 |
| 20260505002504 | 60 | 179 | 3.0 | 8.0 | 0.00 | 0.00 | 0.00 | 73 | 1011.1 |
| 20260505002004 | 60 | 176 | 2.0 | 6.0 | 0.00 | 0.00 | 0.00 | 74 | 1010.9 |
| 20260505001503 | 60 | 152 | 2.0 | 5.0 | 0.00 | 0.00 | 0.00 | 74 | 1010.8 |
| 20260505001004 | 60 | 164 | 2.0 | 6.0 | 0.00 | 0.00 | 0.00 | 74 | 1010.7 |
| 20260505000504 | 61 | 171 | 2.0 | 3.0 | 0.00 | 0.00 | 0.00 | 74 | 1010.6 |
| 20260505000003 | 61 | 162 | 2.0 | 3.0 | 0.00 | 0.00 | 0.00 | 72 | 1010.6 |
| 20260504235504 | 62 | 160 | 3.0 | 9.0 | 0.00 | 0.00 | 0.00 | 71 | 1010.6 |
| 20260504235003 | 62 | 142 | 5.0 | 10.0 | 0.00 | 0.00 | 0.00 | 69 | 1010.5 |
| 20260504234503 | 63 | 170 | 3.0 | 8.0 | 0.00 | 0.00 | 0.00 | 68 | 1010.4 |
| 20260504234004 | 63 | 142 | 3.0 | 9.0 | 0.00 | 0.00 | 0.00 | 66 | 1010.4 |
| 20260504233503 | 64 | 150 | 3.0 | 6.0 | 0.00 | 0.00 | 0.00 | 62 | 1010.2 |
| 20260504233003 | 64 | 158 | 5.0 | 8.0 | 0.00 | 0.00 | 0.00 | 62 | 1010.2 |
| 20260504232503 | 64 | 169 | 2.0 | 8.0 | 0.00 | 0.00 | 0.00 | 61 | 1010.2 |
| 20260504232003 | 64 | 153 | 3.0 | 8.0 | 0.00 | 0.00 | 0.00 | 60 | 1010.1 |
| 20260504231503 | 65 | 169 | 5.0 | 9.0 | 0.00 | 0.00 | 0.00 | 60 | 1010.1 |
| 20260504231004 | 65 | 155 | 3.0 | 9.0 | 0.00 | 0.00 | 0.00 | 60 | 1010.0 |
| 20260504230504 | 65 | 166 | 5.0 | 9.0 | 0.00 | 0.00 | 0.00 | 61 | 1010.0 |
| 20260504230004 | 65 | 176 | 3.0 | 9.0 | 0.00 | 0.00 | 0.00 | 62 | 1010.1 |
| 20260504225503 | 65 | 139 | 5.0 | 8.0 | 0.00 | 0.00 | 0.00 | 60 | 1010.1 |
| 20260504225004 | 65 | 192 | 4.0 | 10.0 | 0.00 | 0.00 | 0.00 | 59 | 1010.1 |
| 20260504224504 | 65 | 161 | 5.0 | 9.0 | 0.00 | 0.00 | 0.00 | 60 | 1010.1 |
| 20260504224004 | 65 | 182 | 4.0 | 10.0 | 0.00 | 0.00 | 0.00 | 60 | 1010.0 |
| 20260504223504 | 65 | 145 | 4.0 | 9.0 | 0.00 | 0.00 | 0.00 | 61 | 1010.0 |
| 20260504223003 | 65 | 175 | 5.0 | 10.0 | 0.00 | 0.00 | 0.00 | 61 | 1009.9 |
| 20260504222504 | 66 | 161 | 5.0 | 9.0 | 0.00 | 0.00 | 0.00 | 61 | 1009.9 |
| 20260504222004 | 66 | 139 | 4.0 | 8.0 | 0.00 | 0.00 | 0.00 | 62 | 1010.0 |
| 20260504221503 | 66 | 152 | 5.0 | 8.0 | 0.00 | 0.00 | 0.00 | 62 | 1010.0 |
| 20260504221004 | 66 | 159 | 4.0 | 10.0 | 0.00 | 0.00 | 0.00 | 62 | 1010.0 |
| 20260504220504 | 66 | 144 | 5.0 | 12.0 | 0.00 | 0.00 | 0.00 | 62 | 1010.0 |
| 20260504220004 | 66 | 179 | 5.0 | 10.0 | 0.00 | 0.00 | 0.00 | 62 | 1010.0 |
| 20260504215503 | 67 | 162 | 6.0 | 12.0 | 0.00 | 0.00 | 0.00 | 61 | 1010.0 |
| 20260504215004 | 67 | 150 | 6.0 | 13.0 | 0.00 | 0.00 | 0.00 | 61 | 1010.1 |
| 20260504214503 | 67 | 151 | 6.0 | 14.0 | 0.00 | 0.00 | 0.00 | 60 | 1010.1 |
| 20260504214004 | 66 | 151 | 7.0 | 14.0 | 0.00 | 0.00 | 0.00 | 61 | 1010.2 |
| 20260504213504 | 66 | 162 | 5.0 | 10.0 | 0.00 | 0.00 | 0.00 | 62 | 1010.1 |
| 20260504213004 | 66 | 177 | 5.0 | 10.0 | 0.00 | 0.00 | 0.00 | 61 | 1010.0 |
| 20260504212503 | 66 | 166 | 5.0 | 10.0 | 0.00 | 0.00 | 0.00 | 62 | 1010.1 |
| 20260504212004 | 66 | 169 | 5.0 | 12.0 | 0.00 | 0.00 | 0.00 | 62 | 1010.0 |
| 20260504211504 | 66 | 149 | 7.0 | 15.0 | 0.00 | 0.00 | 0.00 | 63 | 1010.0 |
| 20260504211004 | 66 | 157 | 5.0 | 13.0 | 0.00 | 0.00 | 0.00 | 65 | 1010.1 |
| 20260504210504 | 65 | 137 | 4.0 | 13.0 | 0.00 | 0.00 | 0.00 | 65 | 1010.0 |
| 20260504210004 | 65 | 176 | 6.0 | 18.0 | 0.00 | 0.00 | 0.00 | 65 | 1009.9 |
| 20260504205504 | 65 | 147 | 6.0 | 18.0 | 0.00 | 0.00 | 0.00 | 65 | 1009.9 |
| 20260504205003 | 65 | 150 | 9.0 | 16.0 | 0.00 | 0.00 | 0.00 | 66 | 1009.9 |
| 20260504204503 | 65 | 140 | 8.0 | 17.0 | 0.00 | 0.00 | 0.00 | 65 | 1010.0 |
| 20260504204004 | 65 | 164 | 7.0 | 15.0 | 0.00 | 0.00 | 0.00 | 63 | 1010.0 |
| 20260504203504 | 65 | 141 | 6.0 | 20.0 | 0.00 | 0.00 | 0.00 | 64 | 1009.9 |
| 20260504203004 | 65 | 157 | 7.0 | 15.0 | 0.00 | 0.00 | 0.00 | 64 | 1010.0 |
| 20260504202503 | 65 | 161 | 6.0 | 14.0 | 0.00 | 0.00 | 0.00 | 64 | 1010.0 |
| 20260504202004 | 65 | 145 | 9.0 | 17.0 | 0.00 | 0.00 | 0.00 | 63 | 1010.0 |
| 20260504201503 | 66 | 162 | 8.0 | 20.0 | 0.00 | 0.00 | 0.00 | 62 | 1010.0 |
| 20260504201004 | 66 | 159 | 5.0 | 16.0 | 0.00 | 0.00 | 0.00 | 60 | 1010.3 |
| 20260504200504 | 67 | 173 | 6.0 | 17.0 | 0.00 | 0.00 | 0.00 | 61 | 1010.1 |
| 20260504200003 | 66 | 165 | 7.0 | 15.0 | 0.00 | 0.00 | 0.00 | 60 | 1010.3 |
| 20260504195503 | 66 | 171 | 5.0 | 12.0 | 0.00 | 0.00 | 0.00 | 61 | 1010.2 |
| 20260504195004 | 67 | 169 | 9.0 | 20.0 | 0.00 | 0.00 | 0.00 | 61 | 1010.3 |
| 20260504194503 | 67 | 157 | 7.0 | 12.0 | 0.00 | 0.00 | 0.00 | 60 | 1010.3 |
| 20260504194003 | 67 | 156 | 7.0 | 15.0 | 0.00 | 0.00 | 0.00 | 59 | 1010.5 |
| 20260504193504 | 68 | 157 | 6.0 | 14.0 | 0.00 | 0.00 | 0.00 | 58 | 1010.4 |
| 20260504193004 | 68 | 140 | 7.0 | 21.0 | 0.00 | 0.00 | 0.00 | 58 | 1010.5 |
| 20260504192504 | 69 | 166 | 6.0 | 14.0 | 0.00 | 0.00 | 0.00 | 58 | 1010.5 |
| 20260504192004 | 68 | 158 | 6.0 | 12.0 | 0.00 | 0.00 | 0.00 | 61 | 1010.7 |
| 20260504191503 | 68 | 165 | 6.0 | 18.0 | 0.00 | 0.00 | 0.00 | 59 | 1010.6 |
| 20260504191004 | 69 | 159 | 8.0 | 15.0 | 0.00 | 0.00 | 0.00 | 60 | 1010.8 |
| 20260504190504 | 69 | 167 | 5.0 | 13.0 | 0.00 | 0.00 | 0.00 | 59 | 1010.8 |
| 20260504190004 | 69 | 191 | 5.0 | 12.0 | 0.00 | 0.00 | 0.00 | 58 | 1010.8 |
| 20260504185503 | 69 | 142 | 4.0 | 13.0 | 0.00 | 0.00 | 0.00 | 58 | 1010.8 |
| 20260504185004 | 70 | 150 | 5.0 | 14.0 | 0.00 | 0.00 | 0.00 | 58 | 1010.9 |
| 20260504184504 | 69 | 161 | 6.0 | 12.0 | 0.00 | 0.00 | 0.00 | 58 | 1011.0 |
| 20260504184004 | 69 | 175 | 5.0 | 15.0 | 0.00 | 0.00 | 0.00 | 57 | 1011.1 |
| 20260504183503 | 70 | 206 | 3.0 | 8.0 | 0.00 | 0.00 | 0.00 | 56 | 1011.3 |
| 20260504183003 | 71 | 138 | 5.0 | 14.0 | 0.00 | 0.00 | 0.00 | 53 | 1011.3 |
| 20260504182504 | 74 | 133 | 4.0 | 15.0 | 0.00 | 0.00 | 0.00 | 46 | 1011.4 |
| 20260504182004 | 73 | 186 | 3.0 | 13.0 | 0.00 | 0.00 | 0.00 | 44 | 1011.5 |
| 20260504181504 | 74 | 157 | 5.0 | 9.0 | 0.00 | 0.00 | 0.00 | 43 | 1011.5 |
| 20260504181003 | 74 | 221 | 5.0 | 12.0 | 0.00 | 0.00 | 0.00 | 33 | 1011.5 |
| 20260504180504 | 74 | 171 | 6.0 | 12.0 | 0.00 | 0.00 | 0.00 | 34 | 1011.5 |
| 20260504180003 | 74 | 166 | 7.0 | 13.0 | 0.00 | 0.00 | 0.00 | 33 | 1011.6 |
| 20260504175504 | 74 | 230 | 5.0 | 15.0 | 0.00 | 0.00 | 0.00 | 33 | 1011.6 |
| 20260504175003 | 74 | 226 | 6.0 | 13.0 | 0.00 | 0.00 | 0.00 | 32 | 1011.5 |
| 20260504174503 | 73 | 294 | 3.0 | 13.0 | 0.00 | 0.00 | 0.00 | 34 | 1011.7 |
| 20260504174003 | 74 | 217 | 4.0 | 13.0 | 0.00 | 0.00 | 0.00 | 33 | 1011.6 |
| 20260504173503 | 74 | 231 | 3.0 | 12.0 | 0.00 | 0.00 | 0.00 | 33 | 1011.7 |
| 20260504173004 | 73 | 274 | 3.0 | 13.0 | 0.00 | 0.00 | 0.00 | 34 | 1011.7 |
| 20260504172503 | 74 | 222 | 3.0 | 12.0 | 0.00 | 0.00 | 0.00 | 35 | 1011.8 |
| 20260504172004 | 74 | 214 | 3.0 | 13.0 | 0.00 | 0.00 | 0.00 | 33 | 1011.8 |
| 20260504171503 | 74 | 285 | 5.0 | 8.0 | 0.00 | 0.00 | 0.00 | 33 | 1011.9 |
| 20260504171004 | 74 | 241 | 2.0 | 8.0 | 0.00 | 0.00 | 0.00 | 34 | 1011.9 |
| 20260504170503 | 72 | 273 | 4.0 | 12.0 | 0.00 | 0.00 | 0.00 | 34 | 1012.0 |
| 20260504151004 | 69 | 189 | 5.0 | 15.0 | 0.00 | 0.00 | 0.00 | 42 | 1013.2 |
| 20260504150504 | 68 | 148 | 2.0 | 14.0 | 0.00 | 0.00 | 0.00 | 42 | 1013.3 |
| 20260504141003 | 66 | 207 | 3.0 | 12.0 | 0.00 | 0.00 | 0.00 | 41 | 1013.7 |
| 20260504140504 | 66 | 199 | 7.0 | 16.0 | 0.00 | 0.00 | 0.00 | 39 | 1013.6 |
| 20260504130504 | 62 | 233 | 3.0 | 8.0 | 0.00 | 0.00 | 0.00 | 50 | 1014.3 |
| 20260504110503 | 51 | 159 | 2.0 | 5.0 | 0.00 | 0.00 | 0.00 | 71 | 1015.3 |
| 20260504100503 | 49 | 267 | 2.0 | 5.0 | 0.00 | 0.00 | 0.00 | 69 | 1015.0 |
| 20260504082004 | 49 | 229 | 1.0 | 3.0 | 0.00 | 0.00 | 0.00 | 60 | 1014.7 |